Orbital Elements at Epoch 2459200.5 (2020-Dec-17.0) TDB
Reference: JPL 26 (heliocentric ecliptic J2000)
Element | Value | Uncertainty (1-sigma) | Units |
e | .07384497367856141 | 4.7289e-08 | |
a | 2.271559509453926 | 1.0187e-08 | au |
q | 2.103816257269015 | 1.0588e-07 | au |
i | 4.286061667327194 | 4.5501e-06 | deg |
node | 321.190833600265 | 6.0631e-05 | deg |
peri | 244.5867021948968 | 6.625e-05 | deg |
M | 342.0523966382763 | 2.7848e-05 | deg |
tp | 2459262.843124938773 (2021-Feb-17.34312494) | 9.6854e-05 | TDB |
period | 1250.502617292236 3.42 | 8.4123e-06 2.303e-08 | d yr |
n | .2878842435208354 | 1.9366e-09 | deg/d |
Q | 2.439302761638837 | 1.094e-08 | au |
|
| | Orbit Determination Parameters
Additional Information
|